Skip Page Navigation
NASA JPL Caltech
NASA Logo - Jet Propulsion Laboratory + View the NASA Portal
+ Center for Near-Earth Object Studies
JPL Home Earth Solar System Stars & Galaxies Technology
JPL Solar System Dynamics
BODIES ORBITS EPHEMERIDES TOOLS PHYSICAL DATA DISCOVERY FAQ SITE MAP
JPL Small-Body Database Browser
Search: [ help ]  
382758 (2003 GY)
Classification: Apollo [NEO, PHA]          SPK-ID: 2382758
Ephemeris | Orbit Diagram | Orbital Elements | Mission Design | Physical Parameters | Discovery Circumstances | Close-Approach Data ]

[ hide orbit diagram ]

For accurate long-term ephemerides, please instead use our Horizons system.This orbit viewer was implemented using two-body methods, and hence should not be used for determining accurate long-term trajectories (over several years or decades) or planetary encounter circumstances.


Orbital Elements at Epoch 2459200.5 (2020-Dec-17.0) TDB
Reference: JPL 90 (heliocentric ecliptic J2000)
 Element Value Uncertainty (1-sigma)   Units 
e .3172018214569286 1.1237e-08  
a 1.37971368974589 1.9126e-09 au
q .9420659942694343 1.6301e-08 au
i 4.674477099665033 3.6542e-06 deg
node 321.807653952735 4.1748e-05 deg
peri 334.1599761085395 4.2507e-05 deg
M 264.5320062059457 1.0102e-05 deg
tp 2459357.477418383975
(2021-May-22.97741838)
1.6909e-05 TDB
period 591.9457230885099
1.62
1.2309e-06
3.37e-09
d
yr
n .6081638669871283 1.2646e-09 deg/d
Q 1.817361385222346 2.5193e-09 au
  Orbit Determination Parameters
   # obs. used (total)      339  
   # delay obs. used      1  
   # Doppler obs. used      2  
   data-arc span      5775 days (15.81 yr)  
   first obs. used      2003-04-05  
   last obs. used      2019-01-26  
   planetary ephem.      DE441  
   SB-pert. ephem.      SB441-N16  
   condition code      0  
   norm. resid. RMS      .52962  
   source      ORB  
   producer      Otto Matic  
   solution date      2021-Apr-14 10:55:23  

Additional Information
 Earth MOID = .0235498 au 
 Jupiter MOID = 3.3913 au 
 T_jup = 4.745 
[ show covariance matrix ]

Ephemeris | Orbit Diagram | Orbital Elements | Mission Design | Physical Parameters | Discovery Circumstances | Close-Approach Data ]

Physical Parameter Table
Parameter Symbol Value Units Sigma Reference Notes
absolute magnitude H 20.2   n/a MPO278406  

382758 (2003 GY)          Discovered 2003-Apr-05 by NEAT at Haleakala
Reference: Last Updated: 2014-01-21

[ hide close-approach data ]
Close-Approach Data   ...sorted by Date/Time (TDB)
Date/Time (TDB) Time Uncertainty
(days_HH:MM)
Body Nominal Distance (au) Minimum Distance (au) Maximum Distance (au) V-relative (km/s) V-infinity (km/s) JD (TDB) Time Uncertainty (minutes) Semi-major axis (km) Semi-minor axis (km) range-LOV angle (deg) N-sigma BP Orbit Ref. Reference Modified
1904-Oct-03 13:03 < 00:01 Earth 0.485347039495019 0.485342176257172 0.485351902733031 21.5459989156693 21.5457441177329 2416757.043609694 0.336737666688569 242.930461760317 5.13100998234898 -3.38744081083479 780174.079157199 T 90 CATAB v2.0f-lin.ifort 2021-Apr-14 10:55:26 2021-Apr-14 10:55
1909-May-25 09:46 < 00:01 Earth 0.0993030855527495 0.0993007395127122 0.099305431690768 8.79239603526758 8.78934380173018 2418451.906623381 0.63565411686841 195.03801079707 9.18408791032061 53.2431432153676 1134255.4238023 T 90 CATAB v2.0f-lin.ifort 2021-Apr-14 10:55:26 2021-Apr-14 10:55
1909-Oct-11 04:40 00:01 Earth 0.39434124340423 0.394338387895152 0.394344098913375 4.1108938221673 4.10924986407615 2418590.694490047 1.13121095564573 142.572441421581 9.97587680774921 5.20869948380764 164961.730001658 T 90 CATAB v2.0f-lin.ifort 2021-Apr-14 10:55:26 2021-Apr-14 10:55
1917-Sep-22 11:46 < 00:01 Earth 0.265128298277858 0.265126672534814 0.265129924020947 15.0984935821561 15.0978279531683 2421493.990244667 0.130768501882539 81.2671111539947 5.11632766227904 -4.04419497093449 622266.616274063 T 90 CATAB v2.0f-lin.ifort 2021-Apr-14 10:55:26 2021-Apr-14 10:55
1922-May-08 08:00 < 00:01 Earth 0.304031432608345 0.304031095786721 0.304031769429968 15.7878830993098 15.7873279911594 2423182.833306025 0.0356329949436555 16.8189214576247 10.7577769060099 3.94516484076056 2350413.81594209 T 90 CATAB v2.0f-lin.ifort 2021-Apr-14 10:55:26 2021-Apr-14 10:55
1930-Apr-24 06:32 < 00:01 Earth 0.374201955499426 0.374200372663919 0.374203538335634 3.82189895076356 3.8200354353241 2426090.772489894 0.658596271846626 83.0218723845446 8.22153066439353 -18.894158580214 475663.853480453 T 90 CATAB v2.0f-lin.ifort 2021-Apr-14 10:55:26 2021-Apr-14 10:55
1930-Sep-04 16:04 < 00:01 Earth 0.0406608960322173 0.0406592434043661 0.0406625486974631 8.37536614785431 8.36753844005834 2426224.169296210 0.411679547283881 102.898871629339 4.69668461757043 -36.8537546651472 749457.778915901 T 90 CATAB v2.0f-lin.ifort 2021-Apr-14 10:55:26 2021-Apr-14 10:55
1935-Apr-29 23:47 < 00:01 Earth 0.471840658967136 0.471839019135969 0.471842298798652 20.8534167972042 20.8531460009882 2427922.491271765 0.140470984569541 84.2785188102362 10.2415472161746 14.120290653485 1613939.81378572 T 90 CATAB v2.0f-lin.ifort 2021-Apr-14 10:55:26 2021-Apr-14 10:55
1943-Aug-25 23:59 < 00:01 Earth 0.0282364218903815 0.0282358083934742 0.0282370354014549 6.98158332027223 6.96805419345227 2430962.499286222 0.35312585925647 44.0661177572703 2.94894759105945 46.1373102343181 1143395.18872203 T 90 CATAB v2.0f-lin.ifort 2021-Apr-14 10:55:26 2021-Apr-14 10:55
1946-Apr-02 23:32 < 00:01 Mars 0.0754716173289783 0.0754714956991152 0.0754717389609136 5.44824553723029 5.44754924168462 2431913.480307176 0.139578748770144 41.1999468217829 5.30735754249664 85.8812845801969 2106565.53103677 T 90 CATAB v2.0f-lin.ifort 2021-Apr-14 10:55:26 2021-Apr-14 10:55
1956-Jul-06 05:15 < 00:01 Earth 0.0855784927782692 0.0855783473039076 0.0855786382528496 6.33417193549787 6.3292546380161 2435660.718471983 0.377391765275696 13.0473465258835 5.6615898173422 -67.3191208576174 1815947.43941874 T 90 CATAB v2.0f-lin.ifort 2021-Apr-14 10:55:26 2021-Apr-14 10:55
1964-Oct-03 18:25 < 00:01 Earth 0.482213981578624 0.482213587971691 0.482214375185612 21.4605842559734 21.4603267818297 2438672.267072526 0.0353862394384597 21.1664294401563 2.4597771161099 -22.1427876747648 10481944.7433835 T 90 CATAB v2.0f-lin.ifort 2021-Apr-14 10:55:26 2021-Apr-14 10:55
1969-May-26 01:56 < 00:01 Earth 0.0973530191057117 0.0973528190430318 0.0973532191684248 8.73245756785782 8.72932280706347 2440367.580259866 0.0359715597535957 16.2632909822315 9.7466576823345 80.6226115950877 1358545.84479378 T 90 CATAB v2.0f-lin.ifort 2021-Apr-14 10:55:26 2021-Apr-14 10:55
1969-Oct-11 02:23 < 00:01 Earth 0.392676171604127 0.392675982562382 0.392676360645872 4.04684351943175 4.04516644864006 2440505.599609348 0.102225014691513 11.6855064520417 9.3963797406774 87.7644385355636 1562817.57168983 T 90 CATAB v2.0f-lin.ifort 2021-Apr-14 10:55:26 2021-Apr-14 10:55
1977-Sep-23 19:25 < 00:01 Earth 0.280027821787008 0.280027614971576 0.280028028602439 15.538902808152 15.5382904586322 2443410.309059179 0.0181435724020583 10.3343142931493 6.63210580995934 -4.85053947567771 3391943.63468862 T 90 CATAB v2.0f-lin.ifort 2021-Apr-14 10:55:26 2021-Apr-14 10:55
1982-May-09 22:24 < 00:01 Earth 0.283126223761916 0.283125791609882 0.283126655913983 15.1718852821801 15.1712649824557 2445099.433209108 0.0330436874820485 22.0559930415648 11.3188274042708 14.3841645387133 1784855.62799794 T 90 CATAB v2.0f-lin.ifort 2021-Apr-14 10:55:26 2021-Apr-14 10:55
1990-Apr-19 00:26 < 00:01 Earth 0.396676129143469 0.396675687982822 0.396676570304228 4.63142592829574 4.62997538872018 2448000.518279107 0.161298105800132 24.8948956443707 7.87496909561034 -29.7421537320531 1405565.54034526 T 90 CATAB v2.0f-lin.ifort 2021-Apr-14 10:55:26 2021-Apr-14 10:55
1990-Sep-08 15:32 < 00:01 Earth 0.0671596970248496 0.0671591633385416 0.0671602307113598 9.18966889548113 9.18535066504449 2448143.147085242 0.0744483431849409 27.2557879757735 4.85334821595395 -12.7265161658349 529778.312753577 T 90 CATAB v2.0f-lin.ifort 2021-Apr-14 10:55:26 2021-Apr-14 10:55
1993-Apr-12 11:59 < 00:01 Mars 0.0748440190847592 0.0748437590403122 0.0748442791293041 5.68297530158599 5.68230217143407 2449089.999318077 0.139647972822902 33.5649513194318 12.8435038155439 -86.6889663068544 905779.147613755 T 90 CATAB v2.0f-lin.ifort 2021-Apr-14 10:55:26 2021-Apr-14 10:55
1995-Apr-30 22:13 < 00:01 Earth 0.459365647479478 0.459365204711178 0.459366090247778 20.4842324013003 20.4839492378798 2449838.425710273 0.0374014308634792 22.178200060223 11.8380394535052 6.42414344569067 2774029.79456933 T 90 CATAB v2.0f-lin.ifort 2021-Apr-14 10:55:26 2021-Apr-14 10:55
2003-Aug-20 10:59 < 00:01 Earth 0.0424647776472617 0.0424647501286038 0.0424648051659196 6.62077908772218 6.61129521827246 2452871.957408521 0.037752831106911 7.99194397883393 1.37310824524625 -89.9062517734472 4980595.07875756 T 90 CATAB v2.0f-lin.ifort 2021-Apr-14 10:55:26 2021-Apr-14 10:55
2016-Jun-15 17:33 < 00:01 Earth 0.079279122326668 0.0792789140500498 0.0792793306033403 6.48193079636007 6.47674371646651 2457555.231543328 0.169842682213181 13.3992290993543 9.54390495723636 64.1839328713669 1202068.30120026 T 90 CATAB v2.0f-lin.ifort 2021-Apr-14 10:55:26 2021-Apr-14 10:55
2024-Sep-29 13:10 < 00:01 Earth 0.388247673214073 0.388246984240033 0.388248362188135 18.6979224794763 18.6975554386255 2460583.048625050 0.0673584041997983 34.4415461755337 6.61727062995218 -4.12612146872316 1565145.86504747 T 90 CATAB v2.0f-lin.ifort 2021-Apr-14 10:55:26 2021-Apr-14 10:55
2029-May-16 21:41 < 00:01 Earth 0.180700735210074 0.180700033955947 0.180701436464663 11.9173319609032 11.9160946012608 2462273.403418856 0.115097755951804 38.1482839589456 11.0308578536048 24.6928140155651 1007895.34024733 T 90 CATAB v2.0f-lin.ifort 2021-Apr-14 10:55:26 2021-Apr-14 10:55
